sat.trackr.live / text

‹ back to catalog

STARLINK-3829

NORAD 52348 · 2022-045T

PAYLOAD ACTIVE UNKNOWN

§ Identity

Operator
Country
US
Launch date
2022-04-29
Launch site
AFETR
Launch vehicle
Mass (kg)
RCS (m²)

Purposes: comms

External: N2YO · Heavens-Above · Gunter

§ Orbital elements

Epoch: 2026-05-25T04:58:26.152032Z

Period
95.44 min
Inclination
53.2139°
Eccentricity
0.0001105
Mean motion
15.08839349 rev/d
Perigee alt
539.0 km
Apogee alt
540.5 km
Semi-major
6,917.9 km
B*
3.0661e-5
RAAN
215.6194°
Arg perigee
87.3998°
Mean anomaly
272.7121°
Rev number
22,733

§ Raw data

STARLINK-38291 52348U 22045T   26145.20724713  .00000200  00000+0  30661-4 0  99902 52348  53.2139 215.6194 0001105  87.3998 272.7121 15.08839349227335

JSON: /api/v1/satellites/52348 · /tle

For live sub-satellite position, see the globe view (requires WebGL).

§ Visibility from observer

Set your observer location to see the next 7 days of passes ≥ 10°. The values pass through the URL so the page stays shareable.

No JS? Fill the form by hand. The geolocation button needs JavaScript.